When you browse on this site, cookies collect data to enhance your experience and personalize the content and advertising you see.
Visit our Privacy Policy to learn more. By continuing to use the site, you agree to this use of cookies and data.

Hourly Weather Slepnevo

Today, 9 July, Thursday

Time Temperature Precipitation Wind Pressure Humidity
00:00 +11°C° 0 mm 1 mps 743 mmHg 90%
01:00 +11°C° 0 mm 1 mps 743 mmHg 90%
02:00 +11°C° 0 mm 1 mps 743 mmHg 92%
03:00 +12°C° 0 mm 1 mps 743 mmHg 92%
04:00 +12°C° 0 mm 1 mps 743 mmHg 92%
05:00 +12°C° 0 mm 1 mps 743 mmHg 91%
06:00 +12°C° 0.2 mm 1 mps 743 mmHg 92%
07:00 +12°C° 0.2 mm 1 mps 743 mmHg 92%
08:00 +13°C° 0.2 mm 1 mps 743 mmHg 93%
09:00 +14°C° 0.4 mm 2 mps 743 mmHg 88%
10:00 +14°C° 0.4 mm 3 mps 744 mmHg 83%
11:00 +17°C° 0.4 mm 3 mps 744 mmHg 77%
12:00 +17°C° 0.1 mm 3 mps 744 mmHg 68%
13:00 +18°C° 0.1 mm 4 mps 744 mmHg 58%
14:00 +19°C° 0.1 mm 4 mps 745 mmHg 48%
15:00 +19°C° 0 mm 4 mps 745 mmHg 48%
16:00 +19°C° 0 mm 3 mps 745 mmHg 48%
17:00 +19°C° 0 mm 3 mps 745 mmHg 47%
18:00 +17°C° 0 mm 2 mps 745 mmHg 57%
19:00 +16°C° 0 mm 2 mps 745 mmHg 67%
20:00 +14°C° 0 mm 2 mps 745 mmHg 77%
21:00 +13°C° 0 mm 2 mps 745 mmHg 81%
22:00 +12°C° 0 mm 2 mps 746 mmHg 85%
23:00 +11°C° 0 mm 1 mps 746 mmHg 89%

Tomorrow, 10 July, Friday

Time Temperature Precipitation Wind Pressure Humidity
00:00 +10°C° 0 mm 2 mps 746 mmHg 91%
01:00 +9°C° 0 mm 2 mps 747 mmHg 94%
02:00 +9°C° 0 mm 2 mps 747 mmHg 96%
03:00 +9°C° 0 mm 2 mps 747 mmHg 95%
04:00 +10°C° 0 mm 2 mps 747 mmHg 93%
05:00 +10°C° 0 mm 2 mps 747 mmHg 91%
06:00 +13°C° 0 mm 2 mps 747 mmHg 84%
07:00 +14°C° 0 mm 3 mps 747 mmHg 76%
08:00 +16°C° 0 mm 3 mps 747 mmHg 69%
09:00 +17°C° 0 mm 3 mps 747 mmHg 64%
10:00 +19°C° 0 mm 4 mps 747 mmHg 59%
11:00 +20°C° 0 mm 5 mps 747 mmHg 54%
12:00 +18°C° 1.1 mm 4 mps 746 mmHg 68%
13:00 +15°C° 1.1 mm 4 mps 746 mmHg 82%
14:00 +13°C° 1.1 mm 4 mps 746 mmHg 95%
15:00 +13°C° 0.9 mm 4 mps 745 mmHg 96%
16:00 +14°C° 0.9 mm 4 mps 745 mmHg 96%
17:00 +14°C° 0.9 mm 4 mps 744 mmHg 97%
18:00 +15°C° 0.2 mm 4 mps 744 mmHg 97%
19:00 +15°C° 0.2 mm 4 mps 744 mmHg 97%
20:00 +17°C° 0.2 mm 3 mps 743 mmHg 97%
21:00 +17°C° 0 mm 3 mps 743 mmHg 97%
22:00 +17°C° 0 mm 3 mps 744 mmHg 97%
23:00 +16°C° 0 mm 3 mps 744 mmHg 98%

Day after tomorrow, 11 July, Saturday

Time Temperature Precipitation Wind Pressure Humidity
00:00 +16°C° 0 mm 3 mps 744 mmHg 98%
01:00 +16°C° 0 mm 2 mps 744 mmHg 98%
02:00 +15°C° 0 mm 2 mps 744 mmHg 99%
03:00 +16°C° 0 mm 2 mps 745 mmHg 98%
04:00 +16°C° 0 mm 2 mps 745 mmHg 98%
05:00 +16°C° 0 mm 2 mps 745 mmHg 98%
06:00 +16°C° 0 mm 2 mps 745 mmHg 98%
07:00 +17°C° 0 mm 3 mps 745 mmHg 97%
08:00 +18°C° 0 mm 3 mps 744 mmHg 96%
09:00 +20°C° 0.2 mm 4 mps 744 mmHg 89%
10:00 +22°C° 0.2 mm 4 mps 744 mmHg 83%
11:00 +25°C° 0.2 mm 5 mps 744 mmHg 77%
12:00 +25°C° 1.1 mm 5 mps 744 mmHg 81%
13:00 +23°C° 1.1 mm 5 mps 744 mmHg 85%
14:00 +23°C° 1.1 mm 4 mps 744 mmHg 90%
15:00 +23°C° 0.5 mm 4 mps 745 mmHg 88%
16:00 +23°C° 0.5 mm 4 mps 745 mmHg 86%
17:00 +24°C° 0.5 mm 3 mps 745 mmHg 84%
18:00 +21°C° 0 mm 3 mps 746 mmHg 83%
19:00 +20°C° 0 mm 3 mps 746 mmHg 82%
20:00 +18°C° 0 mm 2 mps 746 mmHg 81%
21:00 +17°C° 0 mm 2 mps 747 mmHg 81%
22:00 +18°C° 0 mm 1 mps 747 mmHg 82%
23:00 +16°C° 0 mm 1 mps 747 mmHg 82%

12 July, Sunday

Time Temperature Precipitation Wind Pressure Humidity
00:00 +16°C° 0 mm 1 mps 748 mmHg 82%
01:00 +15°C° 0 mm 1 mps 748 mmHg 83%
02:00 +15°C° 0 mm 1 mps 748 mmHg 83%
03:00 +15°C° 0 mm 1 mps 748 mmHg 83%
04:00 +14°C° 0 mm 1 mps 748 mmHg 84%
05:00 +14°C° 0 mm 1 mps 748 mmHg 84%
06:00 +15°C° 0 mm 1 mps 748 mmHg 83%
07:00 +15°C° 0 mm 1 mps 748 mmHg 81%
08:00 +16°C° 0 mm 1 mps 749 mmHg 79%
09:00 +16°C° 0.1 mm 1 mps 749 mmHg 81%
10:00 +16°C° 0.1 mm 1 mps 749 mmHg 83%
11:00 +15°C° 0.1 mm 1 mps 749 mmHg 85%
12:00 +15°C° 0.2 mm 2 mps 749 mmHg 88%
13:00 +14°C° 0.2 mm 2 mps 749 mmHg 91%
14:00 +13°C° 0.2 mm 2 mps 749 mmHg 94%
15:00 +13°C° 0.2 mm 2 mps 749 mmHg 94%
16:00 +13°C° 0.2 mm 1 mps 749 mmHg 95%
17:00 +13°C° 0.2 mm 1 mps 749 mmHg 96%
18:00 +13°C° 0.1 mm 1 mps 749 mmHg 96%
19:00 +12°C° 0.1 mm 1 mps 749 mmHg 95%
20:00 +11°C° 0.1 mm 0 mps 749 mmHg 95%
21:00 +11°C° 0 mm 0 mps 749 mmHg 95%
22:00 +10°C° 0 mm 0 mps 748 mmHg 95%
23:00 +10°C° 0 mm 0 mps 748 mmHg 95%

13 July, Monday

Time Temperature Precipitation Wind Pressure Humidity
00:00 +10°C° 0 mm 0 mps 748 mmHg 95%
01:00 +10°C° 0 mm 1 mps 748 mmHg 95%
02:00 +10°C° 0 mm 1 mps 748 mmHg 95%
03:00 +10°C° 0 mm 1 mps 748 mmHg 95%
04:00 +11°C° 0 mm 1 mps 748 mmHg 94%
05:00 +11°C° 0 mm 1 mps 747 mmHg 94%
06:00 +12°C° 0 mm 1 mps 747 mmHg 93%
07:00 +13°C° 0 mm 2 mps 747 mmHg 92%
08:00 +13°C° 0 mm 2 mps 747 mmHg 91%
09:00 +14°C° 0 mm 2 mps 747 mmHg 88%
10:00 +14°C° 0 mm 2 mps 747 mmHg 85%
11:00 +15°C° 0 mm 2 mps 747 mmHg 82%
12:00 +15°C° 0 mm 2 mps 746 mmHg 81%
13:00 +14°C° 0 mm 3 mps 746 mmHg 80%
14:00 +16°C° 0 mm 3 mps 746 mmHg 79%
15:00 +16°C° 0 mm 3 mps 745 mmHg 80%
16:00 +16°C° 0 mm 3 mps 745 mmHg 80%
17:00 +15°C° 0 mm 2 mps 745 mmHg 81%
18:00 +14°C° 0.2 mm 3 mps 745 mmHg 84%
19:00 +14°C° 0.2 mm 3 mps 745 mmHg 88%
20:00 +13°C° 0.2 mm 3 mps 745 mmHg 92%
21:00 +13°C° 0.1 mm 3 mps 745 mmHg 93%
22:00 +13°C° 0.1 mm 3 mps 744 mmHg 94%
23:00 +13°C° 0.1 mm 3 mps 744 mmHg 95%

14 July, Tuesday

Time Temperature Precipitation Wind Pressure Humidity
00:00 +13°C° 0.1 mm 3 mps 744 mmHg 95%
01:00 +13°C° 0.1 mm 3 mps 744 mmHg 95%
02:00 +13°C° 0.1 mm 3 mps 744 mmHg 95%
03:00 +13°C° 0 mm 3 mps 744 mmHg 94%
04:00 +13°C° 0 mm 3 mps 743 mmHg 93%
05:00 +13°C° 0 mm 3 mps 743 mmHg 93%
06:00 +15°C° 0 mm 4 mps 743 mmHg 86%
07:00 +17°C° 0 mm 4 mps 743 mmHg 80%
08:00 +19°C° 0 mm 5 mps 743 mmHg 74%
09:00 +19°C° 0 mm 5 mps 742 mmHg 72%
10:00 +20°C° 0 mm 5 mps 742 mmHg 71%
11:00 +20°C° 0 mm 5 mps 741 mmHg 69%
12:00 +20°C° 0.1 mm 5 mps 741 mmHg 72%
13:00 +20°C° 0.1 mm 5 mps 740 mmHg 74%
14:00 +19°C° 0.1 mm 4 mps 740 mmHg 77%
15:00 +19°C° 0.4 mm 4 mps 739 mmHg 80%
16:00 +19°C° 0.4 mm 4 mps 739 mmHg 84%
17:00 +19°C° 0.4 mm 4 mps 739 mmHg 87%
18:00 +19°C° 0.9 mm 4 mps 738 mmHg 90%
19:00 +18°C° 0.9 mm 4 mps 738 mmHg 93%
20:00 +17°C° 0.9 mm 5 mps 738 mmHg 95%
21:00 +17°C° 2.1 mm 5 mps 738 mmHg 96%
22:00 +17°C° 2.1 mm 5 mps 737 mmHg 97%
23:00 +17°C° 2.1 mm 5 mps 737 mmHg 97%
Show more